CZ-6A R/B

基本信息
目录编号:
65233
目录名称:
CZ-6A R/B
国际标识:
2025-178F
轨道中心:
EARTH
物体状态:
在轨
发射日期:
2025-08-17 UTC
国别:
中国 (CN)
轨道信息
数据来源: 国际轨道数据
星历时间: 2026-09-05T14:45:30+0800
半长轴: 7290.589km
偏心率: 0.0103875
轨道倾角: 86.513°
近地点辐角: 22.652°
升交点赤经: 331.171°
平近点角: 337.919°
近地点: 836.721km
远地点: 988.183km
周期: 103.253分钟
每日圈数: 13.946297
详细信息
发射场:
TSC
轨道高度:
LEO
数据来源:
AOE Working Group
参考系:
TEME
时间系统:
UTC
历元类型:
SGP4
2D轨道图
3D轨道图
轨道高度分析图
轨道倾角分析图
轨道综合分析图
查看轨道综合分析图